Minot, ND

6:19 AM CST on December 11, 2016 (GMT -0600)
Minot International

Weather History for KMOT - April, 2012

Change the Weather History Date:

Saturday, April 14, 2012

  Actual Average Record
Temperature  
Mean Temperature 54 °F 43 °F  
Max Temperature 71 °F 55 °F 90 °F (1915)
Min Temperature 36 °F 31 °F 11 °F (1928)
Degree Days  
Heating Degree Days 11 22  
Month to date heating degree days 264 357  
Since 1 July heating degree days 6404 8072  
Cooling Degree Days 0 0  
Month to date cooling degree days 0 0  
Year to date cooling degree days 0 0  
Growing Degree Days 4 (Base 50)    
Moisture  
Dew Point 36 °F    
Average Humidity 57    
Maximum Humidity 96    
Minimum Humidity 18    
Precipitation  
Precipitation 0.00 in 0.03 in 1.00 in (1912)
Month to date precipitation 1.11 0.43  
Year to date precipitation 2.07 2.18  
Sea Level Pressure  
Sea Level Pressure 29.67 in    
Wind  
Wind Speed 5 mph (SW)    
Max Wind Speed 14 mph    
Max Gust Speed 17 mph    
Visibility 10 miles    
Events      
T = Trace of Precipitation, MM = Missing Value Source: NWS Daily Summary

Daily Weather History Graph

Daily Weather History Graph

Search for Another Location

Airport or City:

Trip Planner

Search our weather history database for the weather conditions in past years. The results will help you decide how hot, cold, wet, or windy it might be!

Date:

Astronomy

Apr. 14, 2012 Rise Set
Actual Time 6:56 AM CDT 8:35 PM CDT
Civil Twilight 6:23 AM CDT 9:08 PM CDT
Nautical Twilight 5:43 AM CDT 9:48 PM CDT
Astronomical Twilight 4:59 AM CDT 10:32 PM CDT
Moon 3:50 AM CDT (4/14) 2:02 PM CDT (4/14)
Length of Visible Light 14h 44m
Length of Day
13h 39m
Last Quarter, 37% of the Moon is Illuminated
Apr 14
Last Quarter
Apr 21
New
Apr 29
First Quarter
May 5
Full
May 12
Last Quarter

Hourly Weather History & Observations

Time (CDT) Temp. Windchill Dew Point Humidity Pressure Visibility Wind Dir Wind Speed Gust Speed Precip Events Conditions
12:54 AM 43.0 °F 37.2 °F 41.0 °F 93% 29.65 in 10.0 mi SW 10.4 mph - N/A   Clear
1:54 AM 44.1 °F 40.1 °F 41.0 °F 89% 29.67 in 10.0 mi SW 6.9 mph - N/A   Clear
2:54 AM 43.0 °F 38.2 °F 39.9 °F 89% 29.66 in 8.0 mi SW 8.1 mph - N/A   Clear
3:54 AM 44.1 °F 39.0 °F 39.9 °F 85% 29.66 in 10.0 mi SW 9.2 mph - N/A   Clear
4:54 AM 44.1 °F 38.1 °F 39.0 °F 82% 29.68 in 10.0 mi SW 11.5 mph - N/A   Clear
5:54 AM 37.9 °F 33.5 °F 35.1 °F 89% 29.69 in 10.0 mi WNW 5.8 mph - N/A   Clear
6:54 AM 39.0 °F 35.7 °F 35.1 °F 86% 29.68 in 10.0 mi SW 4.6 mph - N/A   Clear
7:54 AM 41.0 °F 35.2 °F 36.0 °F 82% 29.69 in 10.0 mi WSW 9.2 mph - N/A   Clear
8:54 AM 46.0 °F 41.0 °F 37.0 °F 71% 29.69 in 10.0 mi SW 10.4 mph - N/A   Clear
9:54 AM 55.0 °F - 39.9 °F 57% 29.70 in 10.0 mi SW 8.1 mph - N/A   Clear
10:54 AM 60.1 °F - 42.1 °F 51% 29.71 in 10.0 mi Variable 3.5 mph - N/A   Clear
11:54 AM 63.0 °F - 35.1 °F 35% 29.71 in 10.0 mi Calm Calm - N/A   Clear
12:54 PM 64.9 °F - 35.1 °F 33% 29.70 in 10.0 mi Calm Calm - N/A   Clear
1:54 PM 68.0 °F - 30.0 °F 24% 29.68 in 10.0 mi Variable 3.5 mph - N/A   Clear
2:54 PM 68.0 °F - 28.0 °F 22% 29.66 in 10.0 mi West 10.4 mph - N/A   Clear
3:54 PM 70.0 °F - 24.1 °F 18% 29.65 in 10.0 mi Calm Calm - N/A   Clear
4:54 PM 69.1 °F - 25.0 °F 19% 29.64 in 10.0 mi NW 4.6 mph - N/A   Clear
5:54 PM 68.0 °F - 26.1 °F 21% 29.65 in 10.0 mi Calm Calm - N/A   Clear
6:54 PM 64.9 °F - 32.0 °F 29% 29.66 in 10.0 mi SE 4.6 mph - N/A   Scattered Clouds
7:54 PM 61.0 °F - 36.0 °F 39% 29.67 in 10.0 mi SSE 4.6 mph - N/A   Clear
8:54 PM 57.0 °F - 37.9 °F 49% 29.68 in 10.0 mi ESE 4.6 mph - N/A   Clear
9:54 PM 55.9 °F - 39.9 °F 55% 29.68 in 10.0 mi Calm Calm - N/A   Clear
10:54 PM 55.0 °F - 37.9 °F 53% 29.67 in 10.0 mi Calm Calm - N/A   Clear
11:54 PM 53.1 °F - 39.0 °F 59% 29.67 in 10.0 mi Calm Calm - N/A   Clear